This is the latest recevied weather packets stored in our database for station/object N2XGL-1. If no packets are shown the sender has not sent any weather packets the latest 10 day(s).
| Time | Temp. | Humidity | Pressure | Rain* | Wind** | Luminosity | Snow |
|---|---|---|---|---|---|---|---|
| 1778098144 | 3.89° C | 78% | 1021.7 hPa | 2.29 mm | - | - | - |
| 1778097619 | 3.33° C | 74% | 1021.8 hPa | 2.54 mm | - | - | - |
| 1778097557 | 3.33° C | 73% | 1021.7 hPa | 3.05 mm | - | - | - |
| 1778097078 | 3.33° C | 73% | 1021.7 hPa | 3.05 mm | - | - | - |
| 1778096584 | 3.33° C | 71% | 1021.8 hPa | 3.56 mm | - | - | - |
| 1778096073 | 3.33° C | 73% | 1021.9 hPa | 4.32 mm | - | - | - |
| 1778095494 | 3.89° C | 80% | 1021.9 hPa | 5.33 mm | - | - | - |
| 1778094999 | 3.33° C | 76% | 1022 hPa | 5.59 mm | - | - | - |
| 1778094457 | 3.33° C | 73% | 1022 hPa | 6.6 mm | - | - | - |
| 1778093881 | 3.33° C | 71% | 1022.1 hPa | 7.62 mm | - | - | - |
| 1778093370 | 3.33° C | 74% | 1022.2 hPa | 7.62 mm | - | - | - |
| 1778092814 | 3.33° C | 72% | 1022.2 hPa | 7.11 mm | - | - | - |
| 1778092308 | 3.33° C | 77% | 1022.3 hPa | 6.86 mm | - | - | - |
| 1778091734 | 2.78° C | 80% | 1022.4 hPa | 5.84 mm | - | - | - |
| 1778091168 | 2.78° C | 81% | 1022.5 hPa | 4.83 mm | - | - | - |
| 1778090706 | 3.33° C | 85% | 1022.5 hPa | 3.56 mm | - | - | - |
| 1778090619 | 3.33° C | 85% | 1022.5 hPa | 3.56 mm | - | - | - |
| 1778090053 | 3.33° C | 86% | 1022.5 hPa | 2.54 mm | - | - | - |
| 1778089574 | 3.33° C | 87% | 1022.5 hPa | 2.03 mm | - | - | - |
| 1778089154 | 2.78° C | 89% | 1022.4 hPa | 1.78 mm | - | - | - |
| 1778088988 | 2.78° C | 89% | 1022.4 hPa | 1.78 mm | - | - | - |
| 1778088420 | 2.22° C | 89% | 1022.5 hPa | 1.52 mm | - | - | - |
| 1778087878 | 1.67° C | 92% | 1022.5 hPa | 1.52 mm | - | - | - |
| 1778087428 | 1.11° C | 92% | 1022.4 hPa | 1.52 mm | - | - | - |
| 1778087303 | 1.11° C | 92% | 1022.4 hPa | 1.52 mm | - | - | - |
* Rain latest hour (hover to see other rain measurements)
** Current wind speed in m/s (hover to see current wind gust speed)